SL-14 DEB, 45270

Orbit data source: Space-Track

SL-14 DEB, 45270 is space debris in LEO originally from a launch on Thu, 15 Aug 1991 UTC launched from the Plesetsk Missile And Space Complex (PKMTR). Debris objects in space refer to the collection of defunct objects orbiting the Earth. Examples of debris include non-operational satellites, rocket bodies, and fragments generated from explosions, collisions, or faulty payload assembly.

Loading next visibility...
Identifier
45270, 1991-056G
Orbit
LEO
Country
Flag of CISCIS
Related business
Manufacturer
Unknown
Mission
Spacecraft
Bus & Motor
Unknown
Mass
Unknown
Launch date (UTC)
1991-08-15 (34 years ago)
Launch vehicle
Unknown
Launch site
Plesetsk Missile And Space Complex (PKMTR)
Object type
Payload
Rocket body
Debris
Shape & HBR
Unknown shape, 0.1 m
Radar Cross Section
Small (<0.1 m²)

Expand to show TLE details & history
Last TLE update: 14 hours ago

TLE from 14 hours ago
0 SL-14 DEB
1 45270U 91056G   25342.83616370  .00000284  00000-0  64874-3 0  9995
2 45270  82.5674 263.1015 0031414 160.5560 199.6771 13.22374136280895
Epoch: 2025-12-08T20:04Z
TLE epoch observation values (Epoch: 2025-12-08T20:04:04.543Z)
Latitude
-0.00009°
Longitude
-115.74693°
Altitude
1,200.837 km
Speed
7.243 km/s
True Right ascension
17h 32m 24s
True Declination
0° 00' 00"
Sunlit
Object was in daylight at epoch
Visualization orbit readout
Latitude
Unknown
Longitude
Unknown
Altitude
Unknown
Speed
Unknown
Apparent Right ascension
Unknown
Apparent Declination
Unknown
Sunlit
N/A
Visualization observer readout
Local Sidereal Time
08:03:11
Azimuth
Unknown
Elevation
Unknown
Doppler factor
Unknown
Orbital elements
Apogee altitude
1,196.623 km
Perigee altitude
1,149.181 km
Semi-major axis
7,551.039 km
Eccentricity
0.00314
Inclination
82.5674°
RAAN
263.1015°
Arg. of periapsis
160.556°
True anomaly
199.55634°
Mean anomaly
199.6771°
Eccentric anomaly
199.61667°
Mean motion
3.30775 °/min
Orbital period
108.84 mins
BSTAR
0.00064874
Loading maneuver chart data...
Computing Atmospheric mass density...
Loading historical data...
Loading historical data...
Loading historical data...
Loading historical data...
Loading historical data...
Loading historical data...
Loading historical data...

Documentation

Showing up to 5 results
|